Weather History for KMNI - July, 2013

Change the Weather History Date:

Thursday, July 11, 2013

  Actual Average (KCKI) Record (KCKI)
Temperature  
Mean Temperature 82 °F -  
Max Temperature 91 °F 94 °F 91 °F (2011)
Min Temperature 73 °F 69 °F 69 °F (2010)
Cooling Degree Days 17    
Growing Degree Days 32 (Base 50)    
Moisture  
Dew Point 78 °F    
Average Humidity 89    
Maximum Humidity 100    
Minimum Humidity 66    
Precipitation  
Precipitation 1.31 in - - ()
Sea Level Pressure  
Sea Level Pressure 29.96 in    
Wind  
Wind Speed - (North)    
Max Wind Speed -    
Max Gust Speed -    
Visibility 8 miles    
Events Thunderstorm    
Averages and records for this station are not official NWS values.
T = Trace of Precipitation, MM = Missing Value Source: NWS Daily Summary

Daily Weather History Graph

Daily Weather History Graph

Search for Another Location

Airport or City:

Trip Planner

Search our weather history database for the weather conditions in past years. The results will help you decide how hot, cold, wet, or windy it might be!

Date:

Astronomy

Jul. 11, 2013 Rise Set
Actual Time 6:19 AM EDT 8:33 PM EDT
Civil Twilight 5:50 AM EDT 9:01 PM EDT
Nautical Twilight 5:16 AM EDT 9:36 PM EDT
Astronomical Twilight 4:38 AM EDT 10:14 PM EDT
Moon 9:24 AM EDT (7/11) 10:26 PM EDT (7/11)
Length of Visible Light 15h 10m
Length of Day
14h 13m
Waxing Crescent, 10% of the Moon is Illuminated
Jul 11
Waxing Crescent
Jul 15
First Quarter
Jul 22
Full
Jul 29
Last Quarter
Aug 6
New

Hourly Weather History & Observations

Time (EDT) Temp. Heat Index Dew Point Humidity Pressure Visibility Wind Dir Wind Speed Gust Speed Precip Events Conditions
12:15 AM 80.6 °F 88.1 °F 78.8 °F 94% 30.01 in 10.0 mi North - - N/A   Clear
12:35 AM 80.6 °F 88.1 °F 78.8 °F 94% 30.00 in 10.0 mi North - - N/A   Clear
12:55 AM 78.8 °F - 78.8 °F 100% 30.00 in 10.0 mi North - - N/A   Clear
1:15 AM 78.8 °F - 78.8 °F 100% 30.00 in 10.0 mi North - - N/A   Scattered Clouds
1:35 AM 78.8 °F - 78.8 °F 100% 30.00 in 7.0 mi North - - N/A   Scattered Clouds
1:55 AM 78.8 °F - 78.8 °F 100% 30.00 in 10.0 mi North - - N/A   Scattered Clouds
2:15 AM 78.8 °F - 78.8 °F 100% 29.99 in 10.0 mi North - - N/A   Scattered Clouds
2:35 AM 78.8 °F - 78.8 °F 100% 29.99 in 10.0 mi North - - N/A   Scattered Clouds
2:55 AM 78.8 °F - 78.8 °F 100% 29.99 in 10.0 mi North - - N/A   Clear
3:15 AM 78.8 °F - 78.8 °F 100% 29.99 in 10.0 mi North - - N/A   Clear
3:35 AM 78.8 °F - 78.8 °F 100% 29.98 in 10.0 mi North - - N/A   Clear
3:55 AM 78.8 °F - 78.8 °F 100% 29.99 in 7.0 mi North - - N/A   Scattered Clouds
4:15 AM 78.8 °F - 78.8 °F 100% 29.98 in 10.0 mi North - - N/A   Scattered Clouds
4:35 AM 78.8 °F - 78.8 °F 100% 29.98 in 10.0 mi North - - N/A   Scattered Clouds
4:55 AM 78.8 °F - 78.8 °F 100% 29.98 in 10.0 mi North - - N/A   Scattered Clouds
5:15 AM 78.8 °F - 78.8 °F 100% 29.98 in 10.0 mi North - - N/A   Scattered Clouds
5:35 AM 78.8 °F - 78.8 °F 100% 29.98 in 10.0 mi North - - N/A   Clear
5:55 AM 78.8 °F - 78.8 °F 100% 29.99 in 10.0 mi North - - N/A   Clear
6:15 AM 78.8 °F - 78.8 °F 100% 29.99 in 10.0 mi North - - N/A   Clear
6:35 AM 78.8 °F - 78.8 °F 100% 29.99 in 10.0 mi North - - N/A   Clear
6:55 AM 78.8 °F - 78.8 °F 100% 29.99 in 7.0 mi North - - N/A   Clear
7:15 AM 78.8 °F - 78.8 °F 100% 29.99 in 7.0 mi North - - N/A   Clear
7:35 AM 80.6 °F 89.3 °F 80.6 °F 100% 30.00 in 7.0 mi North - - N/A   Scattered Clouds
7:55 AM 80.6 °F 89.3 °F 80.6 °F 100% 30.00 in 7.0 mi North - - N/A   Scattered Clouds
8:15 AM 80.6 °F 89.3 °F 80.6 °F 100% 30.00 in 7.0 mi North - - N/A   Clear
8:35 AM 80.6 °F 88.1 °F 78.8 °F 94% 30.00 in 7.0 mi North - - N/A   Clear
8:55 AM 80.6 °F 88.1 °F 78.8 °F 94% 30.01 in 7.0 mi North - - N/A   Scattered Clouds
9:15 AM 82.4 °F 92.4 °F 78.8 °F 89% 30.00 in 7.0 mi North - - N/A   Scattered Clouds
9:35 AM 82.4 °F 92.4 °F 78.8 °F 89% 30.00 in 10.0 mi North - - N/A   Scattered Clouds
9:55 AM 84.2 °F 96.1 °F 78.8 °F 84% 30.00 in 10.0 mi North - - N/A   Scattered Clouds
10:15 AM 84.2 °F 96.1 °F 78.8 °F 84% 30.00 in 7.0 mi North - - N/A   Scattered Clouds
10:35 AM 86.0 °F 99.3 °F 78.8 °F 79% 30.00 in 7.0 mi North - - N/A   Mostly Cloudy
10:55 AM 86.0 °F 99.3 °F 78.8 °F 79% 30.00 in 5.0 mi North - - N/A   Mostly Cloudy
11:15 AM 87.8 °F 102.5 °F 78.8 °F 75% 30.00 in 7.0 mi North - - N/A   Scattered Clouds
11:35 AM 86.0 °F 99.3 °F 78.8 °F 79% 29.99 in 10.0 mi North - - N/A   Scattered Clouds
11:55 AM 87.8 °F 102.5 °F 78.8 °F 75% 29.98 in 7.0 mi North - - N/A   Scattered Clouds
12:15 PM 87.8 °F 102.5 °F 78.8 °F 75% 29.97 in 7.0 mi North - - N/A   Mostly Cloudy
12:35 PM 87.8 °F 102.5 °F 78.8 °F 75% 29.97 in 10.0 mi North - - N/A   Mostly Cloudy
12:55 PM 89.6 °F 104.7 °F 78.8 °F 70% 29.97 in 7.0 mi North - - N/A   Scattered Clouds
1:15 PM 89.6 °F 104.7 °F 78.8 °F 70% 29.96 in 10.0 mi North - - N/A   Scattered Clouds
1:35 PM 89.6 °F 104.7 °F 78.8 °F 70% 29.96 in 7.0 mi North - - N/A   Mostly Cloudy
1:55 PM 89.6 °F 104.7 °F 78.8 °F 70% 29.95 in 7.0 mi North - - N/A   Scattered Clouds
2:15 PM 89.6 °F 104.7 °F 78.8 °F 70% 29.94 in 7.0 mi North - - N/A   Scattered Clouds
2:35 PM 89.6 °F 104.7 °F 78.8 °F 70% 29.94 in 7.0 mi North - - N/A   Scattered Clouds
2:55 PM 89.6 °F 104.7 °F 78.8 °F 70% 29.93 in 7.0 mi North - - N/A   Clear
3:15 PM 91.4 °F 107.2 °F 78.8 °F 66% 29.92 in 7.0 mi North - - N/A   Scattered Clouds
3:35 PM 91.4 °F 107.2 °F 78.8 °F 66% 29.90 in 10.0 mi North - - N/A   Scattered Clouds
3:55 PM 91.4 °F 107.2 °F 78.8 °F 66% 29.89 in 10.0 mi North - - N/A   Scattered Clouds
4:15 PM 91.4 °F 107.2 °F 78.8 °F 66% 29.90 in 7.0 mi North - - N/A   Scattered Clouds
4:35 PM 91.4 °F 111.0 °F 80.6 °F 71% 29.89 in 10.0 mi North - - N/A   Scattered Clouds
4:55 PM 91.4 °F 111.0 °F 80.6 °F 71% 29.89 in 10.0 mi North - - N/A   Unknown
5:15 PM 89.6 °F 104.7 °F 78.8 °F 70% 29.89 in 10.0 mi North - - N/A   Scattered Clouds
5:35 PM 87.8 °F 104.9 °F 80.6 °F 79% 29.89 in 10.0 mi North - - N/A   Scattered Clouds
5:55 PM 86.0 °F 99.3 °F 78.8 °F 79% 29.89 in 10.0 mi North - - N/A   Clear
6:15 PM 84.2 °F 96.1 °F 78.8 °F 84% 29.89 in 10.0 mi North - - N/A   Scattered Clouds
6:35 PM 84.2 °F 94.1 °F 77.0 °F 79% 29.89 in 7.0 mi North - - N/A   Scattered Clouds
6:55 PM 84.2 °F 96.1 °F 78.8 °F 84% 29.88 in 10.0 mi North - - N/A   Scattered Clouds
7:15 PM 82.4 °F 90.9 °F 77.0 °F 84% 29.90 in 7.0 mi North - - N/A Thunderstorm Clear
7:35 PM 82.4 °F 92.4 °F 78.8 °F 89% 29.90 in 10.0 mi North - - N/A Thunderstorm Clear
7:55 PM 82.4 °F 94.0 °F 80.6 °F 94% 29.90 in 10.0 mi North - - N/A Thunderstorm Scattered Clouds
8:15 PM 80.6 °F 87.1 °F 77.0 °F 89% 29.91 in 10.0 mi North - - N/A Thunderstorm Mostly Cloudy
8:35 PM 77.0 °F - 77.0 °F 100% 29.92 in 10.0 mi North - - N/A Thunderstorm Overcast
8:55 PM 75.2 °F - 75.2 °F 100% 29.93 in 7.0 mi North - - 0.04 in Thunderstorm Thunderstorm
9:15 PM 73.4 °F - 73.4 °F 100% 29.95 in 2.0 mi North - - 0.37 in Thunderstorm Thunderstorm
9:35 PM 73.4 °F - 73.4 °F 100% 29.94 in 1.2 mi North - - 0.80 in Thunderstorm Thunderstorm
9:55 PM 73.4 °F - 73.4 °F 100% 29.95 in 3.0 mi North - - 0.90 in Thunderstorm Overcast
10:15 PM 73.4 °F - 73.4 °F 100% 29.95 in 4.0 mi North - - 0.05 in   Mostly Cloudy
10:35 PM 73.4 °F - 73.4 °F 100% 29.95 in 2.5 mi North - - 0.19 in   Mostly Cloudy
10:55 PM 73.4 °F - 73.4 °F 100% 29.96 in 10.0 mi North - - 0.22 in Thunderstorm Mostly Cloudy
11:15 PM 73.4 °F - 73.4 °F 100% 29.95 in 5.0 mi North - - 0.04 in Thunderstorm Overcast
11:35 PM 73.4 °F - 73.4 °F 100% 29.96 in 7.0 mi North - - 0.09 in   Overcast
11:55 PM 73.4 °F - 73.4 °F 100% 29.96 in 7.0 mi North - - 0.15 in Thunderstorm Overcast